This is the latest recevied weather packets stored in our database for station/object VR2HK-13. If no packets are shown the sender has not sent any weather packets the latest 10 day(s).
| Time | Temp. | Humidity | Pressure | Rain* | Wind** | Luminosity | Snow |
|---|---|---|---|---|---|---|---|
| 1778189425 | 24.44° C | 86% | 1011.9 hPa | 1.27 mm | - | - | - |
| 1778189124 | 24.44° C | 86% | 1011.9 hPa | 1.02 mm | - | - | - |
| 1778188524 | 24.44° C | 86% | 1011.8 hPa | 1.27 mm | - | - | - |
| 1778188224 | 24.44° C | 86% | 1011.7 hPa | 1.02 mm | - | - | - |
| 1778187925 | 24.44° C | 86% | 1011.8 hPa | 1.27 mm | - | - | - |
| 1778187624 | 24.44° C | 86% | 1011.8 hPa | 1.78 mm | - | - | - |
| 1778187324 | 24.44° C | 86% | 1011.7 hPa | 1.78 mm | - | - | - |
| 1778187024 | 24.44° C | 86% | 1011.6 hPa | 1.78 mm | - | - | - |
| 1778186724 | 24.44° C | 86% | 1011.4 hPa | 1.78 mm | - | - | - |
| 1778186425 | 24.44° C | 86% | 1011.4 hPa | 2.03 mm | - | - | - |
| 1778186124 | 24.44° C | 85% | 1011.4 hPa | 2.03 mm | - | - | - |
| 1778185824 | 24.44° C | 85% | 1011.4 hPa | 2.29 mm | - | - | - |
| 1778185524 | 24.44° C | 85% | 1011.4 hPa | 3.56 mm | - | - | - |
| 1778185224 | 24.44° C | 85% | 1011.3 hPa | 3.81 mm | - | - | - |
| 1778184923 | 24.44° C | 85% | 1011.2 hPa | 4.06 mm | - | - | - |
| 1778184624 | 24.44° C | 85% | 1011.2 hPa | 5.08 mm | - | - | - |
| 1778184324 | 24.44° C | 86% | 1011.2 hPa | 5.59 mm | - | - | - |
| 1778184024 | 24.44° C | 86% | 1011.2 hPa | 6.86 mm | - | - | - |
| 1778183724 | 24.44° C | 85% | 1011.2 hPa | 7.11 mm | - | - | - |
| 1778183423 | 24.44° C | 85% | 1011.2 hPa | 7.87 mm | - | - | - |
| 1778183124 | 24.44° C | 85% | 1011.1 hPa | 8.64 mm | - | - | - |
| 1778182823 | 24.44° C | 86% | 1011.2 hPa | 8.64 mm | - | - | - |
| 1778182523 | 24.44° C | 85% | 1011.1 hPa | 8.89 mm | - | - | - |
| 1778182224 | 24.44° C | 86% | 1011.1 hPa | 9.4 mm | - | - | - |
| 1778181923 | 24.44° C | 86% | 1011.1 hPa | 8.89 mm | - | - | - |
* Rain latest hour (hover to see other rain measurements)
** Current wind speed in m/s (hover to see current wind gust speed)